User: anonymous   Login
Location: Newsoms
(36.6240°N, 77.1250°W)
Time: 09:57:07
(UTC-04:00)
Language:

BREEZE-M DEB (TANK) - Orbit

View from above orbital plane
View from above orbital plane
View from above satellite
View from above satellite

Ground track
Ground track

The orbit data is extracted from the following two-line orbital elements,

1 29649U 06056B   16180.78288977 +.00001773 +00000-0 +25737-3 0  9994
2 29649 049.4564 132.0209 5395722 300.9949 016.9421 04.98577951170149
Epoch (UTC): 28 June 2016 18:47:21
Eccentricity: 0.5395722
inclination: 49.4564°
perigee height: 286 km
apogee height: 15905 km
right ascension of ascending node: 132.0209°
argument of perigee: 300.9949°
revolutions per day: 4.98577951
mean anomaly at epoch: 16.9421°
orbit number at epoch: 17014

The dashed part of the orbit path shows where the satellite is in the earth's shadow,  

DLR